Location: Ecklingerode
(51.5036°N, 10.3122°E)
Time: 05:56:58
(UTC+00:00)

USA 281 - Pass Details

Date: 29 October 2020
Orbit: 1078 x 1081 km, 106.0° (Epoch: 28 November)

Event Time Altitude Azimuth Distance (km) Brightness Sun altitude
Rises 16:45:15 0° 159° (SSE) 3,864 6.0 -8.1°
Reaches altitude 10° 16:47:46 10° 162° (SSE) 2,912 5.4 -8.5°
Maximum altitude 16:54:17 70° 245° (WSW) 1,146 3.6 -9.5°
Drops below altitude 10° 17:00:52 10° 330° (NNW) 2,932 5.8 -10.5°
Sets 17:03:25 0° 333° (NNW) 3,892 6.4 -10.9°
